This is the latest recevied weather packets stored in our database for station/object IR9AK-10. If no packets are shown the sender has not sent any weather packets the latest 10 day(s).
| Time | Temp. | Humidity | Pressure | Rain* | Wind** | Luminosity | Snow |
|---|---|---|---|---|---|---|---|
| 1778117524 | 21.11° C | 44% | 1056.7 hPa | - | - | - | - |
| 1778116924 | 21.11° C | 44% | 1056.8 hPa | - | - | - | - |
| 1778116323 | 21.11° C | 44% | 1056.5 hPa | - | - | - | - |
| 1778115724 | 21.11° C | 45% | 1056.7 hPa | - | - | - | - |
| 1778115124 | 21.11° C | 46% | 1056.8 hPa | - | - | - | - |
| 1778114525 | 21.11° C | 46% | 1056.9 hPa | - | - | - | - |
| 1778113927 | 21.11° C | 44% | 1056.7 hPa | - | - | - | - |
| 1778113328 | 21.11° C | 42% | 1056.4 hPa | - | - | - | - |
| 1778112729 | 21.67° C | 40% | 1056.4 hPa | - | - | - | - |
| 1778112131 | 21.67° C | 39% | 1056.5 hPa | - | - | - | - |
| 1778111531 | 21.67° C | 39% | 1056.6 hPa | - | - | - | - |
| 1778110932 | 21.67° C | 38% | 1056.6 hPa | - | - | - | - |
| 1778110334 | 21.67° C | 39% | 1056.7 hPa | - | - | - | - |
| 1778109735 | 21.67° C | 38% | 1056.6 hPa | - | - | - | - |
| 1778109135 | 21.67° C | 38% | 1056.8 hPa | - | - | - | - |
| 1778108536 | 21.67° C | 38% | 1057 hPa | - | - | - | - |
| 1778107937 | 21.67° C | 39% | 1056.8 hPa | - | - | - | - |
| 1778107338 | 21.67° C | 42% | 1056.9 hPa | - | - | - | - |
| 1778106739 | 21.67° C | 45% | 1056.8 hPa | - | - | - | - |
| 1778106140 | 21.67° C | 44% | 1056.8 hPa | - | - | - | - |
| 1778105541 | 21.11° C | 44% | 1056.6 hPa | - | - | - | - |
| 1778104942 | 21.67° C | 44% | 1056.6 hPa | - | - | - | - |
| 1778104343 | 21.67° C | 39% | 1056.6 hPa | - | - | - | - |
| 1778103745 | 21.11° C | 43% | 1056.3 hPa | - | - | - | - |
| 1778103146 | 21.11° C | 44% | 1056.5 hPa | - | - | - | - |
* Rain since midnight (hover to see other rain measurements)
** Current wind speed in m/s (hover to see current wind gust speed)